Regional Weather Roundup
Issued by NWS Kansas City/Pleasant Hill, MO

Home | Current Version | Previous Version | Text Only | Print | Product List | Glossary On
Versions: 1 2 3 4 5 6 7 8 9 10 11 12 13 14 15 16 17 18 19 20 21 22 23 24 25 26 27 28 29 30 31 32 33 34 35 36 37 38 39 40 41 42 43 44 45 46 47 48 49 50
000
ASUS43 KEAX 151410
RWREAX

WEATHER ROUNDUP FOR EASTERN KANSAS AND NORTHWEST MISSOURI
NATIONAL WEATHER SERVICE KANSAS CITY/PLEASANT HILL MO
800 AM CST FRI DEC 15 2017

KSZ040-057-103>105-MOZ028-029-037-043-151500-
...KANSAS CITY METROPOLITAN AREA...

CITY           SKY/WX    TMP DP  RH WIND       PRES   REMARKS
K.C. INTL      PTCLDY    30  26  85 SW5       30.13S WCI  25
K.C. DOWNTOWN  CLEAR     32  27  81 SW7       30.14F WCI  26
LEES SUMMIT    CLEAR     31  28  89 W6        30.14S WCI  25
OLATHE - IXD   CLEAR     30  28  92 W5        30.15F WCI  25
OLATHE - OJC   CLEAR     31  29  92 W5        30.14S WCI  26
LAWRENCE       CLOUDY    27  26  96 CALM      30.16S FOG

$$

MOZ001>008-011>017-020>025-030>033-038>040-044>046-053-054-151500-
...NORTHERN AND CENTRAL MISSOURI...

CITY           SKY/WX    TMP DP  RH WIND       PRES   REMARKS
ST. JOSEPH     MOCLDY    27  23  85 SW7       30.14R WCI  19
MOSBY          MOSUNNY   30  27  86 CALM      30.14S
WARRENSBURG    MOCLDY    30  28  93 CALM      30.15S
WHITEMAN AFB   CLEAR     30  26  83 W5        30.10S WCI  26
CLINTON        CLEAR     32  28  86 W3        30.15S
SEDALIA        CLEAR     33  28  81 W7        30.14S WCI  27
WARSAW         NOT AVBL
CHILLICOTHE      N/A     30  22  72 SW5       30.13S WCI  25
KIRKSVILLE     CLEAR     30  24  78 W6        30.08S WCI  24

$$

MOZ041-047>049-056>058-063>065-088>090-097-151500-
...EASTERN AND SOUTHERN MISSOURI...

CITY           SKY/WX    TMP DP  RH WIND       PRES   REMARKS
ST. LOUIS INTL MOCLDY    32  24  72 SW7       30.09F WCI  26
SPIRIT OF STL  CLOUDY    32  24  72 SW7       30.10F WCI  26
COLUMBIA       CLOUDY    33  25  72 W8        30.10S WCI  26
JEFFERSON CITY CLOUDY    32  25  75 CALM      30.13S
ROLLA          CLOUDY    30  24  78 SW7       30.10F WCI  23
OSAGE BEACH    CLEAR     31  26  82 W3        30.14
SPRINGFIELD    PTCLDY    33  27  78 W6        30.14R WCI  28
BRANSON        PTCLDY    32  27  80 CALM      30.17R
JOPLIN         CLEAR     31  31 100 CALM      30.20R
WEST PLAINS    CLOUDY    30  24  78 SW3       30.14S

$$

IAZ060-094-KSZ022-034>040-054-083-096-NEZ052-066-093-151500-
...KANSAS...SOUTHEAST NEBRASKA AND IOWA...

CITY           SKY/WX    TMP DP  RH WIND       PRES   REMARKS
TOPEKA         CLEAR     31  29  92 W5        30.16F WCI  26
MANHATTAN      CLEAR     27  23  85 SW8       30.17F WCI  19
EMPORIA        PTCLDY    24  22  91 W7        30.18F WCI  16
CHANUTE        CLEAR     30  27  88 W6        30.20S WCI  24
WICHITA        PTCLDY    26  23  88 W3        30.21F
OMAHA          CLOUDY    34  23  64 W12       30.06S WCI  25
LINCOLN        CLEAR     27  21  78 SW8       30.09F WCI  19
FALLS CITY     CLOUDY    30  25  81 SW10      30.11F WCI  21
LAMONI         CLOUDY    31  22  69 SW14      30.05R WCI  21
DES MOINES     CLOUDY    31  23  72 SW8       30.01F WCI  23

$$




USA.gov is the U.S. government's official web portal to all federal, state and local government web resources and services.